Location: Unspecified
(0.0000°N, 0.0000°E)
Time: 06:21:10
(UTC+00:00)

Hubble Space Telescope - Pass Details

Date: 18 January 2018
Orbit: 537 x 541 km, 28.5° (Epoch: 17 July)

Event Time Altitude Azimuth Distance (km) Brightness Sun altitude
Exits shadow 04:43:48 23° 4° (N) 1,181 2.3 -20.2°
Maximum altitude 04:44:53 25° 29° (NNE) 1,093 2.4 -19.9°
Drops below altitude 10° 04:48:21 10° 86° (E) 1,787 4.4 -19.1°
Sets 04:50:54 0° 99° (E) 2,679 5.9 -18.5°
